[[{"header":{"parameterUnit":"m.s-1","parameterCategory":1,"la1":30.2991,"la2":30.254,"lo1":-89.0895,"lo2":-89.0444,"dy":0.0017,"dx":0.0017,"nx":28,"ny":28,"refTime":"2025-01-08T03:00:00:Z","depth":0,"parameterNumber":2,"parameterNumberName":"U-component_of_WINDS"},"data":[0,0,0,0,0,0,0,0,0,0,0,0,0,0,0,0,0,0,0,0,0,0,0,0,0,0,0,0,0,0,0,0,0,0,0,0,0,0,0,0,0,0,0,0,0,0,0,0,0,0,0,0,0,0,0,0,0,0,-2.5034,-2.5034,0,-2.5038,-2.5038,-2.5039,-2.4949,-2.4946,-2.4944,-2.4941,-2.495,-2.4953,-2.4955,0,0,0,0,0,0,0,0,0,0,0,0,0,-2.4951,-2.4953,-2.5034,-2.5034,-2.5034,-2.5038,-2.5038,-2.5039,-2.4949,-2.4946,-2.4943,-2.494,-2.495,-2.4953,-2.4956,0,0,0,0,0,0,0,0,0,0,0,0,0,-2.4975,-2.4954,-2.5034,-2.4989,-2.4986,-2.5038,-2.5038,-2.5039,-2.495,-2.4946,-2.4942,-2.4939,-2.4949,-2.4952,-2.4956,-2.5052,0,0,-2.4968,-2.4969,0,0,0,0,0,0,0,0,-2.4973,-2.4978,-2.4996,-2.4993,-2.4988,-2.4989,-2.5012,-2.5043,-2.4951,-2.4963,-2.4941,-2.4937,-2.4967,-2.4969,-2.4978,-2.5053,-2.5053,-2.4968,-2.497,-2.4972,-2.4973,0,0,0,0,0,0,0,-2.4972,-2.4977,-2.5036,-2.4996,-2.4992,-2.4971,-2.497,-2.5018,-2.4986,-2.4962,-2.4955,-2.4957,-2.4964,-2.4974,-2.4977,-2.5053,-2.4968,-2.4971,-2.4973,-2.4975,-2.521,-2.5213,0,0,0,0,0,0,-2.4976,-2.4976,-2.5035,-2.5036,-2.4972,-2.4975,-2.4974,-2.4993,-2.4985,-2.498,-2.496,-2.4953,-2.497,-2.4973,-2.4977,-2.5091,-2.4972,-2.4975,-2.4977,-2.5206,-2.5211,-2.5215,0,0,0,0,0,0,-2.4974,-2.4982,-2.5035,-2.5004,-2.5009,-2.4981,-2.5002,-2.4995,-2.5005,-2.4983,-2.4977,-2.4977,-2.4967,-2.4972,-2.5034,-2.509,-2.4977,-2.498,-2.5201,-2.5207,-2.5213,-2.5318,0,0,0,0,0,0,-2.4972,-2.4982,-2.5017,-2.5006,-2.5011,-2.5092,-2.5005,-2.4997,-2.5011,-2.5002,-2.4997,-2.4993,-2.4964,-2.5029,-2.5038,-2.5093,-2.4983,-2.5196,-2.5204,-2.5211,-2.531,-2.5327,-2.5342,0,0,0,0,0,-2.497,-2.5047,-2.5019,-2.5027,-2.5055,-2.5095,-2.5098,-2.5063,-2.5016,-2.5052,-2.5038,-2.4993,-2.5082,-2.5037,-2.5046,-2.5103,-2.5192,-2.5202,-2.521,-2.5303,-2.5324,-2.5342,0,0,0,0,0,0,-2.5067,-2.5045,-2.5014,-2.509,-2.5095,-2.508,-2.5124,-2.5086,-2.5105,-2.5096,-2.5052,-2.5052,-2.5122,-2.5118,-2.5068,-2.5196,-2.5129,-2.514,-2.5196,-2.5216,-2.5232,-2.5232,-2.4986,0,0,0,0,0,-2.5098,-2.5131,-2.511,-2.5179,-2.5183,-2.5153,-2.5169,-2.5141,-2.5145,-2.5147,-2.5138,-2.5145,-2.5174,-2.5195,-2.522,-2.5308,-2.5307,-2.5352,-2.5368,-2.5381,-2.5392,-2.544,-2.546,-2.5244,-2.5244,-2.5244,0,0,-2.5161,-2.5153,-2.5176,-2.5198,-2.5199,-2.5236,-2.5156,-2.5198,-2.5225,-2.5154,-2.5213,-2.5206,-2.5211,-2.5287,-2.532,-2.5286,-2.5452,-2.5393,-2.5404,-2.5407,-2.5451,-2.5472,-2.549,-2.525,-2.5249,-2.5248,0,0,-2.5295,-2.5291,-2.5349,-2.5351,-2.5353,-2.5332,-2.5347,-2.5337,-2.533,-2.5387,-2.5335,-2.5368,-2.5419,-2.5425,-2.5435,-2.5572,-2.5532,-2.5582,-2.5666,-2.5714,-2.5731,-2.5746,-2.5796,-2.5815,-2.5592,-2.5592,-2.5592,0,-2.5374,-2.5426,-2.5384,-2.543,-2.5442,-2.5378,-2.5437,-2.5441,-2.5452,-2.5463,-2.5424,-2.5487,-2.5486,-2.5563,-2.5597,-2.5606,-2.5622,-2.5583,-2.5731,-2.5746,-2.5759,-2.5807,-2.5826,-2.5598,-2.5598,-2.5597,-2.5597,0,-2.5523,-2.556,-2.5607,-2.5618,-2.5635,-2.5687,-2.5655,-2.5678,-2.5648,-2.5633,-2.5693,-2.5689,-2.5714,-2.573,-2.5702,-2.5804,-2.5783,-2.5738,-2.5671,-2.5787,-2.5831,-2.5849,-2.5607,-2.5605,-2.5603,-2.5602,0,0,-2.572,-2.5707,-2.5725,-2.573,-2.5727,-2.5755,-2.5805,-2.5828,-2.5849,-2.5858,-2.5901,-2.5946,-2.5905,-2.5916,-2.5888,-2.5929,-2.604,-2.588,-2.5879,-2.5911,-2.6155,-2.6189,-2.6211,-2.6013,-2.6016,-2.6019,-2.6155,0,-2.5852,-2.5935,-2.5899,-2.5987,-2.6022,-2.5962,-2.6006,-2.601,-2.5997,-2.6025,-2.6011,-2.6044,-2.5987,-2.5993,-2.6031,-2.6019,-2.6089,-2.6008,-2.6054,-2.6056,-2.6056,-2.6234,-2.6271,-2.6399,-2.6172,-2.6175,-2.6177,0,-2.6016,-2.6032,-2.6123,-2.6115,-2.6128,-2.6168,-2.6186,-2.6214,-2.6218,-2.6205,-2.6218,-2.6181,-2.6232,-2.6163,-2.6233,-2.6179,-2.6195,-2.6192,-2.6196,-2.6201,-2.6125,-2.6245,-2.6439,-2.6459,-2.6203,-2.6201,-2.6199,0,-2.6153,-2.6196,-2.6257,-2.6262,-2.6254,-2.6284,-2.6282,-2.6282,-2.6298,-2.6315,-2.6325,-2.6348,-2.6361,-2.638,-2.6351,-2.6304,-2.6426,-2.6355,-2.6419,-2.642,-2.6449,-2.6448,-2.6651,-2.6457,-2.6457,-2.6456,-2.6456,0,-2.6305,-2.6363,-2.6318,-2.6356,-2.642,-2.6379,-2.6444,-2.6436,-2.6436,-2.6473,-2.6422,-2.6457,-2.6416,-2.6448,-2.6425,-2.6488,-2.6493,-2.6486,-2.648,-2.6492,-2.6493,-2.6504,-2.6495,-2.6462,-2.646,-2.6459,-2.6459,0,-2.6469,-2.644,-2.6503,-2.6489,-2.6487,-2.6536,-2.6525,-2.656,-2.6543,-2.6589,-2.6598,-2.6572,-2.6607,-2.658,-2.6614,-2.6599,-2.6682,-2.6662,-2.6681,-2.6676,-2.6743,-2.6738,-2.6961,-2.6989,-2.6776,-2.6778,-2.6779,0,-2.6568,-2.6612,-2.6603,-2.6623,-2.6624,-2.6656,-2.6672,-2.6634,-2.6653,-2.6661,-2.6696,-2.6726,-2.6748,-2.6807,-2.6793,-2.6819,-2.6801,-2.6877,-2.6805,-2.6816,-2.6804,-2.6803,-2.6808,-2.6893,-2.6895,-2.6897,-2.6899,0,-2.6748,-2.6732,-2.6757,-2.6777,-2.6798,-2.6812,-2.6823,-2.6843,-2.6803,-2.6828,-2.6862,-2.6879,-2.6914,-2.6946,-2.6967,-2.6967,-2.6928,-2.6921,-2.6938,-2.6952,-2.6961,-2.6959,-2.6723,-2.6917,-2.6915,-2.6914,-2.6913,-2.6912,-2.6884,-2.6921,-2.692,-2.695,-2.6953,-2.6965,-2.6997,-2.6984,-2.7012,-2.7036,-2.7012,-2.7055,-2.7058,-2.7083,-2.7087,-2.7121,-2.709,-2.7113,-2.712,-2.7127,-2.7137,-2.6954,-2.7125,-2.7124,-2.7123,-2.7123,-2.7123,0,-2.7063,-2.706,-2.7087,-2.7104,-2.7127,-2.7086,-2.7096,-2.7119,-2.7157,-2.7163,-2.7185,-2.7226,-2.7256,-2.7244,-2.7271,-2.7301,-2.7284,-2.731,-2.7308,-2.7309,-2.7163,-2.7146,-2.7323,-2.7323,-2.7323,-2.7323,-2.7323,-2.7323,-2.7159,-2.7219,-2.7204,-2.7266,-2.7262,-2.7302,-2.7312,-2.7322,-2.7327,-2.7374,-2.7399,-2.739,-2.739,-2.7416,-2.7443,-2.7439,-2.7452,-2.7485,-2.7475,-2.7339,-2.7319,-2.73,-2.7285,-2.7488,-2.7488,-2.7619,-2.762,-2.7621]},{"header":{"parameterUnit":"m.s-1","parameterCategory":1,"la1":30.2991,"la2":30.254,"lo1":-89.0895,"lo2":-89.0444,"dy":0.0017,"dx":0.0017,"nx":28,"ny":28,"refTime":"2025-01-08T03:00:00:Z","depth":0,"parameterNumber":3,"parameterNumberName":"V-component_of_WINDS"},"data":[0,0,0,0,0,0,0,0,0,0,0,0,0,0,0,0,0,0,0,0,0,0,0,0,0,0,0,0,0,0,0,0,0,0,0,0,0,0,0,0,0,0,0,0,0,0,0,0,0,0,0,0,0,0,0,0,0,0,-0.3807,-0.3808,0,-0.3844,-0.3844,-0.3844,-0.384,-0.3839,-0.3839,-0.3838,-0.3876,-0.3878,-0.3879,0,0,0,0,0,0,0,0,0,0,0,0,0,-0.3735,-0.3737,-0.3807,-0.3808,-0.3808,-0.3844,-0.3844,-0.3844,-0.384,-0.3839,-0.3839,-0.3838,-0.3876,-0.3878,-0.388,0,0,0,0,0,0,0,0,0,0,0,0,0,-0.3768,-0.3737,-0.3807,-0.381,-0.3811,-0.3843,-0.3844,-0.3845,-0.384,-0.3839,-0.3838,-0.3837,-0.3875,-0.3877,-0.388,-0.3912,0,0,-0.3887,-0.3888,0,0,0,0,0,0,0,0,-0.3767,-0.3771,-0.3809,-0.381,-0.3811,-0.3836,-0.3833,-0.3867,-0.384,-0.3829,-0.3838,-0.3837,-0.3864,-0.3867,-0.3876,-0.3914,-0.3916,-0.3887,-0.3889,-0.389,-0.389,0,0,0,0,0,0,0,-0.3764,-0.377,-0.3822,-0.381,-0.3811,-0.381,-0.3814,-0.3839,-0.3851,-0.383,-0.383,-0.3834,-0.3864,-0.3874,-0.3877,-0.3916,-0.3887,-0.3889,-0.3891,-0.3892,-0.3982,-0.3983,0,0,0,0,0,0,-0.3761,-0.3768,-0.3821,-0.3823,-0.3786,-0.3812,-0.3816,-0.3829,-0.3851,-0.3853,-0.3835,-0.3834,-0.387,-0.3874,-0.3878,-0.3917,-0.389,-0.3892,-0.3893,-0.3981,-0.3982,-0.3983,0,0,0,0,0,0,-0.376,-0.3766,-0.3819,-0.3795,-0.3802,-0.3814,-0.3829,-0.383,-0.384,-0.3854,-0.3856,-0.3842,-0.3869,-0.3875,-0.3903,-0.3918,-0.3893,-0.3895,-0.398,-0.3981,-0.3983,-0.3996,0,0,0,0,0,0,-0.3758,-0.3765,-0.3778,-0.3795,-0.3803,-0.3844,-0.383,-0.3832,-0.3844,-0.3843,-0.3862,-0.3864,-0.3869,-0.39,-0.3906,-0.3921,-0.3897,-0.3979,-0.3981,-0.3982,-0.3994,-0.3997,-0.4,0,0,0,0,0,-0.3755,-0.378,-0.3778,-0.3785,-0.3819,-0.3845,-0.3849,-0.3854,-0.3845,-0.3857,-0.3867,-0.3864,-0.3916,-0.3903,-0.3909,-0.3926,-0.3978,-0.398,-0.3982,-0.3993,-0.3997,-0.4,0,0,0,0,0,0,-0.3764,-0.3783,-0.3781,-0.3812,-0.3827,-0.3844,-0.386,-0.3858,-0.3876,-0.3875,-0.388,-0.3884,-0.3913,-0.3922,-0.3908,-0.3958,-0.3945,-0.3949,-0.3951,-0.3955,-0.3958,-0.3956,-0.3899,0,0,0,0,0,-0.377,-0.3789,-0.3804,-0.3831,-0.3838,-0.3848,-0.3859,-0.3862,-0.3877,-0.3883,-0.3895,-0.391,-0.393,-0.3943,-0.3962,-0.3995,-0.3999,-0.4009,-0.4013,-0.4015,-0.4018,-0.4036,-0.4041,-0.3991,-0.3991,-0.3991,0,0,-0.3782,-0.3795,-0.3807,-0.3833,-0.3845,-0.3865,-0.3853,-0.3875,-0.389,-0.3887,-0.3915,-0.3923,-0.3941,-0.3972,-0.3986,-0.398,-0.4033,-0.4018,-0.402,-0.4022,-0.4039,-0.4044,-0.4048,-0.3992,-0.3992,-0.3992,0,0,-0.3815,-0.3826,-0.3849,-0.3861,-0.3878,-0.3884,-0.389,-0.3907,-0.3912,-0.394,-0.3938,-0.3956,-0.399,-0.4003,-0.4014,-0.405,-0.4048,-0.4056,-0.4073,-0.409,-0.4094,-0.4098,-0.4111,-0.4115,-0.4059,-0.4059,-0.4059,0,-0.3828,-0.3858,-0.3862,-0.3883,-0.3895,-0.3892,-0.3916,-0.3927,-0.395,-0.3958,-0.3951,-0.3994,-0.4005,-0.4039,-0.4048,-0.4057,-0.4063,-0.4054,-0.4093,-0.4097,-0.41,-0.4113,-0.4118,-0.406,-0.406,-0.406,-0.406,0,-0.3873,-0.3894,-0.3911,-0.3932,-0.3946,-0.3968,-0.3976,-0.3989,-0.399,-0.3996,-0.4025,-0.4038,-0.406,-0.4068,-0.4069,-0.4102,-0.4098,-0.4092,-0.408,-0.4106,-0.4118,-0.4123,-0.4061,-0.4061,-0.406,-0.406,0,0,-0.3914,-0.3936,-0.3942,-0.3952,-0.397,-0.3987,-0.4009,-0.403,-0.4041,-0.4057,-0.4076,-0.4104,-0.4099,-0.4111,-0.4113,-0.4129,-0.4156,-0.4121,-0.4121,-0.4127,-0.4193,-0.4198,-0.4204,-0.4155,-0.4156,-0.4157,-0.4192,0,-0.3948,-0.3988,-0.3991,-0.4026,-0.4046,-0.4043,-0.4062,-0.4076,-0.4083,-0.41,-0.4108,-0.4128,-0.4119,-0.4126,-0.4141,-0.415,-0.417,-0.4147,-0.4173,-0.4174,-0.4169,-0.421,-0.4215,-0.4248,-0.4197,-0.4197,-0.4198,0,-0.3994,-0.401,-0.4048,-0.4063,-0.4071,-0.4089,-0.4107,-0.4124,-0.4139,-0.4143,-0.4156,-0.4157,-0.418,-0.4166,-0.4198,-0.4183,-0.4193,-0.4199,-0.42,-0.4204,-0.4188,-0.4214,-0.4258,-0.4263,-0.4205,-0.4205,-0.4204,0,-0.402,-0.4051,-0.4078,-0.4086,-0.4104,-0.4117,-0.4125,-0.4139,-0.4151,-0.4168,-0.4176,-0.4195,-0.4206,-0.422,-0.4226,-0.4215,-0.4258,-0.4245,-0.4262,-0.4262,-0.4272,-0.4271,-0.4319,-0.4278,-0.4278,-0.4278,-0.4277,0,-0.4059,-0.4082,-0.4089,-0.4106,-0.4131,-0.4135,-0.416,-0.4168,-0.418,-0.4198,-0.4197,-0.4214,-0.422,-0.4237,-0.4242,-0.4268,-0.4273,-0.4277,-0.4278,-0.4277,-0.4277,-0.4285,-0.4283,-0.4279,-0.4279,-0.4278,-0.4278,0,-0.4092,-0.4099,-0.4127,-0.4142,-0.4146,-0.4164,-0.4177,-0.4193,-0.4199,-0.4221,-0.4227,-0.4237,-0.4257,-0.4264,-0.4289,-0.4292,-0.4323,-0.4322,-0.4318,-0.4318,-0.4335,-0.4334,-0.439,-0.4397,-0.4351,-0.4352,-0.4352,0,-0.4117,-0.4134,-0.4151,-0.4162,-0.4171,-0.419,-0.4202,-0.4206,-0.4218,-0.4237,-0.425,-0.4271,-0.4287,-0.4321,-0.433,-0.4349,-0.4349,-0.4367,-0.4352,-0.4351,-0.435,-0.4349,-0.4351,-0.437,-0.4371,-0.4371,-0.4372,0,-0.416,-0.4162,-0.4179,-0.4197,-0.4211,-0.4226,-0.424,-0.4249,-0.4256,-0.427,-0.4291,-0.4304,-0.4329,-0.4349,-0.4369,-0.4378,-0.4376,-0.4376,-0.4381,-0.4381,-0.4378,-0.438,-0.4326,-0.4375,-0.4375,-0.4374,-0.4374,-0.4374,-0.419,-0.4205,-0.4219,-0.4238,-0.4249,-0.4262,-0.4277,-0.4285,-0.4302,-0.4323,-0.4324,-0.4347,-0.4361,-0.4387,-0.4397,-0.4415,-0.441,-0.4417,-0.4419,-0.4421,-0.4422,-0.4375,-0.4418,-0.4418,-0.4418,-0.4418,-0.4418,0,-0.4233,-0.4241,-0.4259,-0.4278,-0.4293,-0.4289,-0.4304,-0.4317,-0.4337,-0.435,-0.4367,-0.4391,-0.441,-0.4421,-0.444,-0.4453,-0.4452,-0.4458,-0.4457,-0.4459,-0.4426,-0.442,-0.4458,-0.4458,-0.4458,-0.4458,-0.4458,-0.4458,-0.4257,-0.4283,-0.4286,-0.4317,-0.4326,-0.4347,-0.4356,-0.4368,-0.4379,-0.4406,-0.4422,-0.4428,-0.4441,-0.4461,-0.4479,-0.4481,-0.4489,-0.4495,-0.4497,-0.4466,-0.4462,-0.4458,-0.4452,-0.4496,-0.4496,-0.4529,-0.4529,-0.453]}]]